Wind_Speed
25 25 26 26 26 26 24 23 23 23 24 24 24 24 23 22 22 22 21 21 20 20 20 19 19 19 18 18 18 18 17 17 17 16 16 16 16 16 16 16 16 16 16 16 16 16 16 17 17
25 26 26 27 26 25 23 23 24 24 24 24 24 24 24 23 23 22 22 22 21 21 21 21 20 20 20 19 19 19 19 19 19 18 18 18 18 17 17 18 18 18 18 18 18 18 18 18 18
25 25 26 26 26 24 23 23 24 24 24 24 24 24 23 23 23 23 23 23 22 22 22 22 22 22 21 21 21 21 21 21 21 20 20 20 20 20 19 19 20 20 20 20 20 20 20 20 20
25 25 26 26 24 24 24 24 24 24 24 24 24 23 23 23 23 23 23 23 23 23 23 23 23 22 22 22 22 22 22 22 22 22 22 22 22 21 22 22 22 22 22 22 22 22 22 22 22
25 25 25 24 23 24 25 26 25 25 24 24 24 24 24 24 24 23 23 23 23 24 24 24 24 23 23 23 23 23 24 24 24 24 24 24 24 23 23 23 23 23 23 23 24 23 23 23 23
25 25 25 23 23 24 25 25 26 26 26 26 25 25 25 25 24 24 24 24 25 25 25 25 25 25 25 25 25 26 26 26 26 26 26 26 26 25 25 25 25 25 25 25 25 25 26 26 26
25 26 25 25 25 25 25 26 26 26 27 27 27 27 26 26 26 26 26 26 26 26 26 27 27 27 27 27 27 27 27 27 27 27 28 28 28 28 27 27 27 27 27 27 28 28 28 28 28
25 26 26 25 25 26 26 26 26 26 27 27 28 27 28 28 28 28 28 27 27 28 28 28 28 29 28 29 29 29 28 29 29 29 29 29 29 29 29 29 29 30 30 30 30 30 30 30 31
25 25 25 24 25 26 26 27 27 27 27 27 28 28 29 29 29 29 29 28 28 29 29 29 29 29 29 29 29 30 30 30 30 30 30 31 31 31 31 31 31 31 32 32 32 32 32 32 33
24 24 24 24 25 26 27 28 28 28 27 27 28 28 29 29 29 29 29 29 29 29 29 29 28 29 29 30 30 30 31 31 31 31 31 32 32 32 33 33 33 33 33 33 33 33 34 34 34
23 23 23 23 24 25 26 27 28 28 28 28 28 28 28 29 29 29 29 29 29 29 28 28 28 29 30 30 31 31 32 32 32 33 33 33 33 33 34 34 35 35 35 36 35 36 36 36 36
23 22 23 23 24 25 25 26 27 27 27 28 28 28 28 27 27 28 28 28 28 28 28 29 29 29 30 31 31 32 32 33 34 34 35 35 35 35 36 36 37 37 37 38 38 38 38 38 39
24 23 24 24 24 24 24 24 24 24 26 27 27 26 26 26 27 27 28 28 29 29 29 29 29 30 30 31 32 33 34 34 35 35 36 36 37 37 38 38 38 39 39 39 40 40 40 41 41
25 25 24 24 24 23 23 23 23 23 25 25 25 25 25 25 26 27 27 28 28 28 29 30 30 30 31 32 32 34 35 36 36 36 37 37 38 38 39 39 39 40 40 41 41 42 43 43 43
26 26 25 24 24 23 24 24 23 24 24 24 24 25 25 25 26 26 27 28 28 29 29 30 31 31 32 32 33 34 35 35 36 37 38 38 39 39 40 40 41 41 42 43 43 44 45 46 46
27 27 25 24 25 24 25 23 24 24 25 24 24 25 25 25 26 26 27 28 29 29 30 31 32 32 32 33 34 35 36 36 37 37 38 39 39 40 41 42 42 43 44 45 46 46 47 48 49
28 27 26 25 26 25 25 23 24 24 24 24 25 25 26 26 26 27 27 28 29 30 30 32 32 33 34 34 35 35 36 37 37 38 39 40 41 42 43 44 45 46 47 47 48 49 49 50 51
29 29 28 27 27 27 26 25 25 25 25 25 26 26 26 27 27 28 28 29 30 31 32 32 33 34 35 36 36 37 38 38 39 40 41 42 42 43 44 46 47 48 49 50 50 51 51 52 52
32 31 30 29 29 29 28 27 27 26 26 26 26 27 27 28 28 29 29 30 31 32 33 33 34 35 36 37 38 39 39 40 41 42 43 43 44 45 46 47 48 49 51 51 52 52 53 54 55
34 33 32 32 32 31 31 29 29 28 27 27 28 28 28 29 29 30 30 31 32 33 34 34 35 35 36 38 39 40 41 42 43 44 44 45 45 46 47 48 49 51 52 53 54 55 56 56 57
36 35 34 34 34 34 33 32 30 29 29 29 29 29 29 30 31 31 32 32 33 34 35 36 37 38 39 41 41 42 43 44 44 45 46 47 47 48 49 50 52 52 53 54 56 57 58 58 59
38 37 36 36 37 36 36 35 32 31 31 30 30 30 31 31 32 33 34 34 35 35 37 38 39 40 42 43 44 44 45 46 46 47 48 48 50 51 52 52 53 54 55 56 58 59 60 62 62
40 39 39 39 39 39 38 39 34 33 32 32 32 32 32 33 33 34 35 36 36 37 38 40 41 43 44 45 46 47 47 48 48 49 49 50 51 53 54 55 55 56 57 59 60 62 63 64 65
42 41 41 42 42 43 40 40 38 35 34 33 34 34 34 34 35 35 36 37 38 39 40 41 43 44 46 47 48 48 49 50 50 51 51 52 53 55 56 57 58 60 61 62 63 63 64 65 65
43 43 43 44 45 44 42 42 40 37 36 35 35 35 36 36 36 37 37 38 39 40 41 42 44 46 47 48 49 49 50 51 52 52 53 54 55 57 58 59 61 62 62 64 64 65 65 65 65
44 44 44 45 46 45 44 44 41 39 38 37 37 37 37 37 38 38 39 40 41 42 43 44 45 46 48 49 50 51 52 52 53 54 55 56 57 58 60 61 62 63 64 64 65 65 65 65 65
45 45 44 45 46 46 46 44 42 41 39 38 38 38 38 39 39 40 41 42 43 44 44 45 46 48 48 49 50 51 53 54 55 56 57 58 59 60 62 62 63 63 64 65 65 65 65 65 64
45 44 43 44 46 46 47 45 43 41 40 40 39 39 39 40 41 42 43 43 44 45 46 47 48 48 49 50 51 52 54 55 57 58 59 60 60 61 62 63 64 64 65 65 65 64 64 64 62
45 45 45 46 47 47 47 46 44 42 42 41 41 41 41 41 42 42 43 45 46 47 48 48 49 49 50 51 52 53 55 56 58 59 60 61 61 62 63 63 64 65 65 64 63 63 62 61 59
46 46 46 46 47 47 47 47 45 44 43 43 43 42 43 43 43 44 45 46 47 48 49 49 50 51 51 52 53 55 56 58 59 59 60 60 61 62 63 64 64 64 63 62 62 61 59 57 56
Wind_Direction
238 237 238 238 240 240 242 242 242 242 243 244 245 246 246 246 246 246 247 247 247 248 249 250 253 254 256 258 260 263 264 265 266 267 267 269 270 272 274 275 275 275 276 278 278 280 280 281 282
238 238 238 239 240 241 242 242 242 242 243 244 245 245 246 246 247 246 246 247 248 249 249 251 252 255 257 258 261 263 264 266 267 268 268 269 270 272 274 274 274 275 276 277 278 278 280 280 281
239 239 239 239 240 241 242 241 242 242 242 243 244 245 246 246 247 247 248 248 249 250 251 252 253 256 258 260 262 263 264 266 267 268 269 270 270 271 273 275 275 275 276 277 277 277 277 278 279
239 239 239 239 239 240 241 241 242 242 242 243 244 245 246 246 247 248 249 250 251 252 252 254 255 257 258 260 261 262 264 265 267 268 269 270 271 271 272 273 274 275 276 276 277 277 276 276 277
239 238 239 239 239 239 241 241 242 243 243 244 245 246 247 248 249 249 250 252 253 254 255 255 256 257 258 259 261 262 264 265 266 267 268 269 270 270 271 272 273 274 275 276 276 277 277 276 276
239 239 239 238 238 239 241 242 243 244 245 245 245 246 248 249 250 250 251 252 254 255 257 257 257 258 259 261 262 263 264 265 266 267 268 269 269 269 271 271 272 273 274 275 276 276 276 277 277
240 240 240 239 239 241 242 244 244 245 246 246 247 247 248 249 251 252 252 253 255 256 257 259 260 260 261 262 263 264 264 265 266 267 268 269 269 270 270 271 272 273 274 274 275 275 276 276 277
241 241 241 241 242 243 244 245 245 246 247 247 248 248 249 250 251 253 254 255 256 257 258 260 261 262 262 263 263 264 265 266 267 267 268 268 269 270 271 272 272 273 274 275 275 276 276 276 276
243 242 242 243 243 243 244 245 245 246 247 248 249 249 249 250 251 253 255 256 257 258 259 261 261 262 263 264 264 265 266 267 268 269 269 270 270 271 271 272 272 273 274 274 275 275 276 276 276
244 244 243 243 244 244 245 246 246 247 247 248 249 250 250 251 252 253 255 256 258 258 259 261 262 263 264 265 266 266 267 268 269 270 270 271 271 271 271 272 272 273 274 274 275 275 276 276 277
244 245 243 244 244 245 246 247 247 248 249 250 250 251 252 252 252 253 254 256 257 258 259 260 262 263 264 266 267 267 268 269 270 270 271 272 272 271 271 271 272 273 274 274 275 275 276 277 277
244 243 243 244 245 246 247 247 248 248 248 249 250 251 252 253 253 254 254 254 256 258 259 261 262 264 265 266 267 268 269 270 271 271 272 272 272 272 273 273 272 272 273 274 275 275 276 277 277
243 243 243 243 244 246 247 248 248 248 248 248 249 250 251 253 254 255 255 255 257 258 260 262 264 265 266 267 269 270 270 271 271 271 272 272 273 273 274 274 275 274 274 274 275 275 276 276 277
243 243 243 243 244 245 246 247 248 248 249 248 249 250 251 253 256 256 257 257 258 260 261 263 265 266 268 270 271 271 271 272 272 273 273 273 274 274 274 275 275 275 274 274 275 275 276 276 277
242 243 243 244 245 246 246 247 248 248 250 250 250 251 253 255 257 257 257 258 258 260 262 264 266 268 269 270 272 273 273 274 274 275 275 275 275 275 275 275 275 275 275 275 276 276 276 277 277
243 243 244 245 246 247 248 247 250 250 251 251 251 252 254 257 259 260 259 259 260 261 263 265 267 269 270 271 273 274 274 274 275 275 276 276 276 276 276 276 276 276 276 277 277 278 278 278 278
243 244 244 245 246 247 248 248 250 251 253 252 252 253 255 258 260 262 262 261 261 262 264 266 267 270 271 273 274 275 275 275 276 277 277 277 277 276 277 277 277 277 277 278 278 278 279 278 278
245 246 245 247 247 248 249 249 252 253 254 255 255 256 257 259 261 263 264 264 263 263 265 267 269 270 272 273 275 276 276 277 277 278 278 278 277 277 277 278 278 277 278 278 279 279 279 279 278
245 245 247 248 249 250 250 250 253 255 256 257 258 259 260 261 263 264 266 267 266 266 266 268 270 272 273 275 277 277 277 278 278 278 279 279 278 278 278 279 279 280 280 279 279 279 279 279 279
246 247 248 249 251 252 251 251 253 256 258 259 260 260 261 263 264 266 267 269 269 269 269 270 271 273 275 277 278 279 279 279 279 279 279 279 279 280 280 281 282 282 282 281 280 280 280 280 280
247 248 249 251 252 252 253 251 253 256 258 259 261 262 263 265 266 267 268 270 271 272 272 272 273 275 277 279 279 280 280 280 280 280 280 279 280 281 283 283 283 283 283 283 282 282 281 281 281
248 249 250 252 253 254 254 254 252 255 258 259 261 263 265 266 267 268 270 271 273 274 275 276 276 277 278 280 280 281 281 281 281 281 281 280 281 283 284 285 284 285 285 284 284 284 283 282 282
248 249 251 252 254 254 255 257 255 256 258 261 263 264 265 266 268 269 271 272 273 274 276 277 278 279 279 280 281 281 282 282 282 282 281 282 283 284 285 285 285 285 285 285 285 284 284 283 283
248 249 250 252 254 255 255 258 258 257 259 261 263 265 266 267 268 270 271 273 274 275 277 278 280 281 281 282 282 282 283 282 281 281 282 283 284 285 285 285 286 286 286 286 286 285 285 284 283
248 249 252 253 254 256 257 258 260 261 261 262 264 265 267 268 269 271 273 274 275 276 278 279 281 282 283 283 283 283 283 283 282 282 282 283 284 284 285 285 286 287 287 287 287 286 286 285 284
248 249 251 254 256 257 258 258 260 262 263 264 265 266 268 269 271 272 274 274 275 277 278 280 282 283 284 284 284 284 284 284 283 283 283 284 284 285 286 286 286 287 287 287 287 287 286 286 285
245 247 250 253 255 257 258 258 259 261 263 264 266 267 268 269 271 272 274 275 276 278 279 281 283 284 284 284 285 285 285 285 284 284 284 285 285 286 287 287 287 287 288 288 287 287 286 286 285
245 246 247 250 254 256 258 259 260 261 264 265 267 268 269 270 272 273 275 277 278 279 280 282 284 284 285 286 286 287 287 287 286 286 285 286 286 287 288 288 288 288 288 288 288 287 286 286 285
244 246 248 251 253 256 259 261 262 264 265 267 268 269 271 272 273 275 276 278 279 280 282 283 284 285 285 287 288 288 289 288 288 287 287 287 287 288 289 289 288 289 288 288 287 286 285 285 284
245 246 248 250 253 256 259 261 263 265 267 268 269 271 272 274 275 276 278 279 280 282 283 283 284 285 286 287 288 289 290 290 289 289 289 289 289 289 289 289 289 289 288 288 288 286 285 284 282
Height
5799 5801 5803 5805 5808 5809 5812 5814 5815 5817 5818 5820 5821 5823 5825 5827 5829 5833 5832 5832 5833 5834 5835 5836 5837 5838 5839 5840 5841 5841 5842 5843 5844 5844 5845 5846 5846 5847 5848 5848 5849 5849 5850 5850 5850 5851 5851 5851 5852
5795 5797 5800 5801 5803 5806 5809 5810 5811 5813 5814 5816 5817 5819 5821 5823 5824 5826 5827 5828 5829 5830 5831 5832 5833 5834 5835 5836 5837 5838 5839 5840 5841 5841 5842 5843 5843 5844 5844 5845 5845 5846 5846 5846 5847 5847 5848 5848 5848
5791 5793 5796 5797 5799 5802 5805 5806 5807 5809 5810 5812 5814 5815 5817 5819 5820 5822 5823 5824 5825 5827 5828 5829 5830 5831 5832 5833 5834 5835 5835 5836 5837 5838 5838 5839 5840 5840 5841 5841 5842 5842 5842 5843 5843 5843 5844 5844 5844
5787 5789 5791 5794 5796 5798 5800 5802 5803 5805 5807 5808 5810 5812 5813 5815 5816 5818 5819 5820 5822 5823 5824 5825 5826 5827 5828 5829 5830 5831 5832 5832 5833 5834 5834 5835 5836 5836 5837 5837 5838 5838 5838 5838 5839 5839 5839 5840 5840
5783 5785 5787 5789 5792 5794 5795 5797 5799 5800 5802 5804 5806 5808 5809 5811 5812 5814 5815 5816 5817 5819 5820 5821 5822 5823 5824 5825 5826 5827 5827 5828 5829 5829 5830 5831 5831 5832 5832 5833 5833 5833 5834 5834 5834 5834 5835 5835 5835
5779 5781 5783 5786 5788 5789 5791 5792 5794 5796 5798 5800 5802 5803 5805 5806 5808 5809 5811 5812 5813 5814 5815 5816 5817 5818 5819 5820 5821 5822 5823 5823 5824 5825 5825 5826 5826 5827 5827 5828 5828 5828 5829 5829 5829 5830 5830 5830 5830
5775 5776 5778 5781 5783 5785 5787 5788 5790 5791 5793 5795 5797 5799 5800 5802 5803 5804 5806 5807 5808 5810 5811 5812 5813 5814 5815 5816 5816 5817 5818 5818 5819 5820 5820 5821 5821 5822 5822 5823 5823 5823 5824 5824 5824 5824 5825 5825 5825
5769 5772 5774 5776 5778 5780 5782 5783 5785 5786 5788 5790 5792 5794 5795 5797 5798 5799 5801 5802 5803 5804 5805 5807 5807 5808 5809 5810 5811 5812 5812 5813 5814 5814 5815 5815 5816 5816 5816 5817 5817 5818 5818 5818 5818 5818 5819 5819 5819
5764 5768 5769 5772 5773 5775 5776 5778 5780 5781 5783 5785 5786 5788 5790 5791 5793 5794 5796 5797 5798 5799 5800 5801 5802 5803 5804 5805 5805 5806 5807 5807 5808 5808 5809 5809 5810 5810 5810 5811 5811 5811 5812 5812 5812 5812 5812 5812 5812
5760 5762 5765 5767 5768 5770 5771 5772 5774 5776 5778 5779 5781 5782 5784 5786 5787 5789 5790 5791 5792 5794 5795 5796 5797 5797 5798 5799 5799 5800 5801 5801 5802 5802 5802 5803 5803 5803 5804 5804 5804 5805 5805 5805 5805 5805 5805 5805 5805
5755 5757 5759 5761 5762 5764 5765 5767 5769 5770 5773 5774 5776 5777 5778 5780 5781 5783 5784 5785 5787 5788 5789 5790 5791 5791 5792 5793 5793 5794 5794 5795 5795 5796 5796 5796 5796 5796 5797 5797 5797 5797 5797 5798 5798 5798 5798 5798 5798
5751 5752 5754 5755 5757 5758 5760 5762 5763 5765 5767 5768 5770 5771 5773 5775 5776 5777 5778 5780 5781 5782 5783 5784 5785 5785 5786 5786 5787 5787 5788 5788 5788 5788 5789 5789 5789 5789 5789 5789 5789 5790 5790 5790 5790 5790 5790 5790 5789
5745 5747 5748 5750 5752 5753 5755 5756 5758 5760 5761 5762 5764 5766 5768 5769 5770 5771 5772 5774 5775 5776 5777 5778 5778 5779 5780 5780 5780 5780 5781 5781 5781 5781 5781 5781 5781 5781 5781 5781 5781 5781 5781 5781 5781 5781 5781 5781 5780
5740 5742 5743 5745 5747 5748 5750 5751 5753 5755 5755 5757 5759 5761 5762 5763 5764 5765 5766 5768 5769 5770 5770 5771 5772 5772 5773 5773 5773 5773 5773 5773 5773 5773 5773 5773 5773 5772 5772 5772 5772 5772 5772 5772 5772 5772 5772 5771 5771
5734 5736 5738 5740 5742 5743 5745 5747 5749 5749 5750 5752 5753 5755 5756 5758 5759 5760 5760 5761 5762 5763 5764 5764 5765 5765 5766 5766 5766 5766 5766 5765 5765 5765 5764 5764 5764 5764 5763 5763 5763 5763 5762 5762 5762 5762 5761 5761 5761
5729 5731 5733 5736 5736 5738 5741 5743 5743 5743 5745 5746 5748 5749 5751 5752 5753 5753 5754 5755 5756 5756 5757 5757 5758 5758 5758 5758 5758 5758 5758 5757 5757 5756 5756 5755 5755 5755 5754 5754 5753 5753 5752 5752 5751 5751 5750 5750 5749
5723 5725 5728 5730 5730 5732 5734 5737 5737 5738 5739 5741 5742 5744 5745 5746 5747 5747 5748 5748 5749 5750 5750 5750 5750 5751 5751 5750 5750 5750 5750 5749 5748 5747 5747 5746 5745 5745 5744 5743 5743 5742 5741 5741 5740 5739 5738 5738 5737
5717 5719 5721 5723 5724 5726 5728 5730 5731 5732 5733 5735 5736 5737 5738 5739 5740 5740 5741 5741 5742 5742 5743 5743 5743 5743 5742 5742 5742 5742 5741 5740 5739 5738 5737 5736 5735 5734 5733 5732 5731 5730 5729 5728 5728 5727 5725 5724 5723
5710 5712 5714 5717 5717 5719 5721 5723 5725 5725 5727 5728 5730 5731 5732 5733 5733 5733 5734 5734 5734 5735 5735 5735 5735 5735 5734 5734 5733 5733 5732 5731 5730 5728 5727 5726 5725 5723 5722 5721 5719 5718 5717 5716 5714 5713 5712 5711 5709
5702 5705 5708 5709 5710 5712 5714 5716 5718 5719 5721 5722 5723 5724 5725 5726 5726 5727 5727 5727 5727 5727 5727 5727 5727 5726 5726 5725 5724 5723 5722 5721 5719 5718 5716 5715 5713 5712 5710 5709 5708 5706 5704 5702 5701 5699 5698 5696 5694
5695 5698 5700 5702 5703 5704 5706 5709 5712 5713 5714 5715 5716 5717 5718 5718 5719 5719 5719 5719 5719 5719 5719 5718 5718 5717 5716 5715 5714 5713 5712 5710 5709 5707 5706 5704 5702 5700 5698 5697 5695 5693 5690 5689 5686 5684 5682 5681 5679
5687 5690 5692 5693 5694 5696 5699 5700 5706 5706 5707 5708 5710 5710 5711 5711 5711 5711 5711 5711 5711 5710 5710 5709 5709 5708 5707 5705 5703 5702 5700 5699 5698 5696 5694 5692 5690 5688 5686 5683 5681 5679 5677 5674 5672 5669 5667 5664 5663
5678 5681 5683 5684 5685 5687 5690 5691 5697 5699 5700 5701 5702 5703 5703 5703 5703 5703 5703 5702 5702 5702 5701 5700 5699 5698 5696 5694 5692 5690 5688 5687 5685 5683 5682 5680 5677 5675 5672 5670 5667 5665 5662 5659 5657 5654 5651 5647 5645
5668 5671 5673 5674 5675 5678 5683 5683 5687 5691 5693 5694 5694 5694 5694 5694 5694 5694 5694 5693 5693 5692 5691 5690 5689 5687 5685 5682 5680 5677 5675 5674 5672 5670 5669 5667 5664 5662 5659 5656 5653 5650 5647 5644 5641 5637 5634 5631 5628
5659 5662 5663 5664 5665 5669 5673 5674 5678 5682 5684 5685 5685 5685 5685 5685 5685 5685 5685 5685 5684 5683 5681 5680 5678 5676 5673 5670 5667 5665 5662 5660 5658 5656 5655 5653 5651 5648 5645 5642 5638 5634 5631 5628 5624 5621 5617 5614 5611
5648 5651 5654 5656 5657 5660 5662 5664 5670 5672 5673 5674 5675 5676 5676 5676 5676 5676 5675 5675 5673 5672 5671 5669 5667 5665 5662 5658 5656 5653 5650 5647 5644 5643 5641 5638 5636 5633 5630 5626 5623 5619 5615 5611 5607 5604 5600 5596 5593
5637 5640 5644 5645 5646 5649 5651 5655 5660 5662 5663 5664 5665 5666 5666 5666 5666 5666 5665 5664 5663 5662 5660 5658 5656 5653 5650 5647 5643 5640 5637 5634 5631 5629 5626 5623 5620 5617 5614 5610 5606 5603 5598 5594 5590 5586 5583 5579 5576
5627 5630 5633 5634 5635 5638 5641 5645 5650 5652 5653 5654 5655 5655 5656 5656 5656 5655 5654 5653 5652 5650 5648 5646 5644 5641 5638 5635 5631 5628 5624 5621 5617 5614 5611 5608 5605 5601 5597 5593 5589 5585 5581 5576 5572 5569 5565 5561 5559
5617 5620 5622 5624 5626 5629 5631 5638 5639 5641 5643 5643 5644 5644 5644 5645 5644 5644 5643 5642 5640 5638 5637 5635 5632 5629 5626 5623 5619 5615 5611 5607 5603 5600 5596 5592 5589 5585 5581 5576 5572 5567 5563 5559 5555 5552 5548 5545 5542
5605 5608 5611 5615 5616 5618 5621 5629 5628 5630 5631 5632 5632 5633 5633 5633 5633 5632 5631 5630 5628 5627 5625 5622 5620 5616 5613 5610 5606 5602 5597 5593 5589 5585 5580 5576 5573 5568 5564 5559 5555 5550 5546 5542 5538 5535 5531 5528 5526